Total_Precipitation_Accumulation
0.64 0.59 0.53 0.55 0.55 0.51 0.51 0.57 0.71 0.86 1.00 1.11 1.22 1.46 1.61 1.72 1.72 1.71 1.75 1.66 1.47 1.55 1.67 1.66 1.89 1.96 1.95 1.97 1.92 2.09 2.15 1.87 1.70 2.02 1.98 1.58 1.29 1.17 1.24 1.33 1.37 1.48 1.50
0.53 0.51 0.42 0.40 0.42 0.43 0.45 0.51 0.65 0.87 1.09 1.30 1.46 1.63 1.93 2.09 2.09 2.15 2.07 2.00 1.88 1.90 1.82 1.91 2.15 2.21 2.33 2.44 2.29 2.45 2.55 2.23 1.93 2.37 2.84 2.41 1.96 1.36 1.13 1.25 1.40 1.57 1.61
0.41 0.42 0.38 0.33 0.30 0.32 0.38 0.46 0.56 0.77 1.06 1.36 1.59 1.77 1.99 2.23 2.32 2.22 2.18 2.20 2.26 2.29 2.17 2.13 2.28 2.32 2.42 2.65 2.69 2.64 2.76 2.70 2.35 2.30 2.83 2.79 2.43 2.01 1.47 1.30 1.37 1.55 1.67
0.39 0.36 0.34 0.35 0.30 0.32 0.37 0.46 0.57 0.70 0.91 1.17 1.48 1.72 1.96 2.27 2.33 2.29 2.27 2.31 2.39 2.45 2.40 2.35 2.43 2.47 2.47 2.59 2.66 2.64 2.89 3.12 2.86 2.56 2.33 2.28 2.32 2.36 1.98 1.56 1.41 1.55 1.65
0.41 0.36 0.35 0.35 0.37 0.38 0.42 0.54 0.65 0.76 0.92 1.16 1.47 1.78 1.96 2.13 2.31 2.31 2.20 2.13 2.20 2.19 2.15 2.27 2.43 2.46 2.47 2.48 2.66 2.78 2.99 3.03 2.98 2.85 2.68 2.50 2.34 1.99 2.06 1.97 1.71 1.66 1.59
0.42 0.43 0.46 0.46 0.45 0.50 0.58 0.71 0.80 0.96 1.08 1.16 1.27 1.43 1.64 1.92 2.04 2.12 2.15 2.17 2.17 2.03 1.93 2.04 2.13 2.23 2.30 2.31 2.37 2.53 2.70 2.90 3.04 2.98 2.81 2.75 2.68 2.47 2.29 2.00 1.84 1.90 1.74
0.52 0.59 0.66 0.62 0.59 0.63 0.76 0.86 0.94 0.99 1.04 1.00 1.01 1.12 1.29 1.53 1.65 1.73 1.92 2.00 2.05 2.00 1.92 1.87 1.93 2.00 2.05 2.16 2.34 2.36 2.42 2.60 2.80 2.82 2.76 2.75 2.60 2.50 2.53 2.30 1.94 1.85 1.74
0.63 0.78 0.88 0.88 0.82 0.84 0.88 0.88 0.92 0.87 0.87 0.89 0.91 0.96 1.02 1.17 1.29 1.35 1.51 1.64 1.65 1.63 1.59 1.62 1.70 1.84 1.93 2.02 2.17 2.25 2.23 2.31 2.37 2.40 2.56 2.66 2.56 2.36 2.31 2.32 2.37 2.11 1.87
0.77 0.95 1.11 1.15 1.06 0.99 0.94 0.94 0.98 0.92 0.84 0.87 0.94 0.96 0.97 0.98 1.00 1.06 1.06 1.13 1.22 1.23 1.25 1.30 1.44 1.63 1.75 1.80 1.90 2.07 2.06 2.12 2.12 2.19 2.26 2.30 2.37 2.25 2.09 2.06 2.16 2.27 2.06
0.98 1.12 1.24 1.25 1.20 1.22 1.18 1.02 0.98 1.01 0.93 1.01 1.02 0.94 0.90 0.86 0.86 0.90 0.95 0.95 1.02 1.11 1.19 1.20 1.26 1.39 1.49 1.57 1.73 1.88 1.96 2.00 1.97 1.97 2.05 2.10 2.15 2.16 2.15 2.12 2.12 2.10 2.03
1.20 1.21 1.29 1.28 1.18 1.16 1.12 1.10 1.05 1.02 1.04 1.05 1.07 0.95 0.91 0.90 0.87 0.86 0.89 0.97 1.03 1.13 1.17 1.21 1.24 1.26 1.35 1.40 1.50 1.64 1.79 1.82 1.83 1.72 1.76 1.88 1.94 2.12 2.17 2.15 2.11 2.08 1.99
1.19 1.18 1.24 1.20 1.07 1.04 0.93 0.97 1.04 1.05 1.12 1.13 1.05 0.97 1.01 1.01 1.02 0.98 0.92 0.95 0.99 0.99 1.07 1.18 1.15 1.15 1.19 1.27 1.38 1.47 1.54 1.64 1.61 1.51 1.53 1.64 1.71 1.85 1.97 2.08 1.99 2.00 1.96
0.98 0.92 0.94 1.01 0.98 0.96 0.89 0.97 1.04 1.10 1.10 1.14 1.14 1.03 0.94 0.95 0.98 0.97 0.89 0.85 0.88 0.91 1.02 1.15 1.27 1.18 1.08 1.17 1.26 1.30 1.33 1.35 1.30 1.29 1.34 1.40 1.47 1.60 1.72 1.82 1.91 1.93 1.86
0.76 0.69 0.66 0.71 0.74 0.78 0.85 0.92 1.04 1.19 1.22 1.21 1.16 1.10 1.03 1.04 0.96 0.87 0.83 0.82 0.78 0.73 0.79 0.93 1.05 1.10 1.06 1.02 1.03 1.06 1.22 1.22 1.14 1.05 1.04 1.07 1.11 1.24 1.38 1.49 1.64 1.80 1.92
0.54 0.55 0.53 0.53 0.55 0.59 0.67 0.75 0.87 1.07 1.19 1.28 1.26 1.17 1.09 1.00 0.91 0.82 0.73 0.73 0.64 0.62 0.69 0.84 1.00 1.05 1.04 1.06 1.06 1.00 1.04 1.10 1.12 1.06 0.94 0.87 0.87 0.97 1.06 1.16 1.42 1.63 1.79
0.38 0.39 0.42 0.43 0.48 0.52 0.59 0.60 0.71 0.88 1.00 1.08 1.11 1.17 1.13 0.96 0.85 0.75 0.66 0.64 0.62 0.61 0.61 0.69 0.84 0.98 0.94 1.10 1.14 1.06 0.98 0.99 1.00 1.00 0.99 0.97 0.92 0.80 0.77 0.84 1.01 1.25 1.47
0.34 0.32 0.32 0.36 0.43 0.51 0.55 0.59 0.70 0.82 0.86 0.91 0.94 0.99 0.99 0.84 0.77 0.66 0.59 0.57 0.57 0.58 0.57 0.64 0.76 0.89 1.03 1.06 0.93 0.99 1.00 0.97 0.98 0.95 0.95 0.98 0.96 1.01 0.90 0.85 0.83 0.87 1.05
0.25 0.30 0.28 0.28 0.32 0.39 0.50 0.64 0.68 0.68 0.69 0.75 0.77 0.77 0.79 0.74 0.67 0.57 0.54 0.54 0.56 0.59 0.59 0.60 0.65 0.73 0.92 0.97 0.85 1.02 1.04 1.05 1.04 1.02 1.02 1.07 1.09 1.04 1.16 1.13 1.03 0.96 0.95
0.16 0.20 0.20 0.20 0.22 0.24 0.28 0.34 0.39 0.43 0.45 0.54 0.62 0.66 0.68 0.65 0.60 0.54 0.60 0.64 0.61 0.60 0.58 0.55 0.56 0.59 0.68 0.78 0.74 0.87 1.00 1.11 1.11 0.99 0.98 1.04 1.06 1.25 1.30 1.20 1.17 1.09 1.04
0.08 0.12 0.15 0.14 0.14 0.16 0.17 0.20 0.24 0.28 0.31 0.37 0.45 0.52 0.59 0.61 0.63 0.73 0.80 0.80 0.76 0.67 0.59 0.54 0.53 0.54 0.56 0.69 0.58 0.68 0.85 1.02 1.15 1.08 1.01 1.16 1.12 1.12 1.08 1.04 1.22 1.19 1.08
0.07 0.08 0.11 0.12 0.13 0.14 0.14 0.16 0.19 0.19 0.22 0.23 0.29 0.40 0.56 0.64 0.71 0.83 0.86 0.83 0.76 0.65 0.58 0.55 0.51 0.49 0.57 0.71 0.66 0.72 0.80 0.94 1.04 1.07 1.07 1.03 1.11 0.94 0.90 0.95 1.08 1.23 1.18
0.07 0.08 0.09 0.09 0.12 0.14 0.12 0.13 0.20 0.20 0.24 0.25 0.26 0.34 0.45 0.58 0.72 0.81 0.79 0.78 0.79 0.71 0.62 0.61 0.58 0.58 0.66 0.72 0.72 0.74 0.79 0.87 0.94 0.94 0.84 0.83 0.92 0.78 0.74 0.73 0.85 1.03 1.06
0.07 0.09 0.09 0.10 0.10 0.11 0.13 0.13 0.16 0.20 0.23 0.25 0.21 0.23 0.32 0.46 0.64 0.72 0.73 0.74 0.76 0.73 0.69 0.64 0.60 0.61 0.66 0.75 0.85 0.74 0.66 0.64 0.72 0.76 0.76 0.69 0.66 0.65 0.60 0.63 0.73 0.79 0.92
0.07 0.07 0.09 0.09 0.10 0.11 0.13 0.16 0.19 0.20 0.20 0.22 0.22 0.21 0.21 0.27 0.36 0.44 0.50 0.58 0.63 0.63 0.63 0.63 0.63 0.64 0.64 0.61 0.67 0.67 0.63 0.57 0.56 0.55 0.49 0.47 0.50 0.55 0.57 0.57 0.58 0.64 0.86
0.08 0.08 0.09 0.11 0.10 0.12 0.12 0.15 0.19 0.21 0.21 0.22 0.24 0.24 0.25 0.28 0.29 0.32 0.35 0.39 0.43 0.51 0.58 0.57 0.60 0.58 0.59 0.59 0.63 0.63 0.62 0.66 0.69 0.70 0.59 0.53 0.51 0.52 0.55 0.57 0.61 0.73 0.84
0.09 0.09 0.11 0.12 0.12 0.12 0.14 0.14 0.15 0.17 0.19 0.20 0.21 0.20 0.21 0.24 0.25 0.27 0.29 0.32 0.32 0.39 0.43 0.43 0.43 0.41 0.47 0.55 0.54 0.55 0.56 0.60 0.68 0.73 0.71 0.70 0.69 0.67 0.66 0.66 0.63 0.64 0.72